Regional Weather Roundup
Issued by NWS New Orleans/Baton Rouge, LA

Home | Current Version | Previous Version | Graphics & Text | Print | Product List | Glossary On
Versions: 1 2 3 4 5 6 7 8 9 10 11 12 13 14 15 16 17 18 19 20 21 22 23 24 25 26 27 28 29 30 31 32 33 34 35 36 37 38 39 40 41 42 43 44 45 46 47 48 49 50
129
ASUS44 KLIX 170205
RWRLIX
NEW ORLEANS REGIONAL WEATHER ROUNDUP
NATIONAL WEATHER SERVICE NEW ORLEANS LA
900 PM CDT TUE SEP 16 2014

NOTE: "FAIR" INDICATES FEW OR NO CLOUDS BELOW 12,000 FEET WITH NO
      SIGNIFICANT WEATHER AND/OR OBSTRUCTIONS TO VISIBILITY.
      SKY/WX - SKY CONDITION AND SIGNIFICANT WEATHER.
      TMP - AIR TEMPERATURE.     DP    - DEWPOINT TEMPERATURE.
      RH  - RELATIVE HUMIDITY.   PRES  - PRESSURE.
      HI  - HEAT INDEX.          WCI   - WIND CHILL INDEX.

*  THESE STATIONS ARE NOT NWS OR FAA STATIONS AND ARE NOT UNDER
   NWS QUALITY CONTROL.

LAZ038-040-048-061>063-065>067-069-170300-
SOUTHEAST LOUISIANA

CITY           SKY/WX    TMP DP  RH WIND       PRES   REMARKS
N.O. AUDUBON     N/A     76  75  99 MISG        N/A
N.O. INTL ARPT CLOUDY    77  74  90 CALM      30.00R
N.O. LAKEFRONT CLOUDY    79  75  87 W7        30.01R
N.O. DOWNTOWN*   N/A     79  72  78 CALM      30.01R
SLIDELL        CLOUDY    75  72  90 NE3       30.01R
BATON ROUGE    CLOUDY    73  71  93 W3        30.02R
BOOTHVILLE     CLOUDY    78  76  93 NW5       30.01R
BELLE CHASSE   CLOUDY    77  73  87 NE5       30.00R
BOGALUSA*      CLOUDY    76  72  87 CALM      30.03R
GALLIANO*      NOT AVBL
NEW ROADS*     DRIZZLE   73  73  97 CALM      30.04R
GONZALES*        N/A     72  72 100 NW3       30.00S
HAMMOND*       CLOUDY    75  72  88 N5        30.05R
HOUMA*         LGT RAIN  77  73  87 NW3       30.00R
PORT FOURCHON* NOT AVBL

$$

MSZ070-080>082-170300-
SOUTHERN MISSISSIPPI

CITY           SKY/WX    TMP DP  RH WIND       PRES   REMARKS
MCCOMB         HVY RAIN  73  70  90 W8        30.05R FOG
GULFPORT       LGT RAIN  75  72  90 S5        30.01F
BILOXI         CLOUDY    76  74  92 SW3       29.99F
PASCAGOULA     CLOUDY    74  73  97 N5        30.01S
STENNIS ARPT*  PTCLDY    75  70  83 E5        30.03R

$$

COASTAL OBSERVATIONS
LAKE AND NEARSHORE STATIONS

STATION/POSITION TIME  TEMP    WIND        PRES    WAVE
                       AIR SEA DIR/SP/G            HT/PER
                 (UTC) (F)     (DEG/KT/KT) (MB)    (FT/S)
PASCAGOULA       0200   77     250/  5/ 10 1015.4
WAVELAND YACHT   0200   79     130/  7/ 12 1015.9
GRAND ISLE       0200   80 85  300/  6/  9 1016.5
SOUTHWEST PASS   0200   82 90  290/  6/ 11 1016.8
NEW CANAL        0200   78 83  230/  4/  5 1016.5
SHELL BEACH      0200   79 80  280/  5/  6 1016.1

OFFSHORE STATIONS

STATION/POSITION TIME  TEMP    WIND        PRES    WAVE
                       AIR SEA DIR/SP/G            HT/PER
                 (UTC) (F)     (DEG/KT/KT) (MB)    (FT/S)
64 S DAUPHIN ISL 0149   82 85  300/ 19/ 23 1016.4    2/ 4

$$




USA.gov is the U.S. government's official web portal to all federal, state and local government web resources and services.